Weather History for Sioux City, IA

Change the Weather History Date:

Wednesday, August 28, 2013

  Actual Average Record
Temperature  
Mean Temperature 80 °F 70 °F  
Max Temperature 91 °F 82 °F 99 °F (1955)
Min Temperature 68 °F 59 °F 39 °F (1986)
Degree Days  
Heating Degree Days 0 1  
Month to date heating degree days 5 6  
Since 1 June heating degree days 60 36  
Since 1 July heating degree days 20 9  
Cooling Degree Days 15 6  
Month to date cooling degree days 222 216  
Year to date cooling degree days 759 761  
Since 1 June cooling degree days 703 697  
Growing Degree Days 30 (Base 50)    
Moisture  
Dew Point 71 °F    
Average Humidity 74    
Maximum Humidity 93    
Minimum Humidity 50    
Precipitation  
Precipitation 0.00 in 0.11 in 2.34 in (1960)
Month to date precipitation 3.02 2.90  
Year to date precipitation 20.08 20.21  
Snow  
Snow 0.00 in 0.00 in 0.00 in ()
Month to date snowfall 0.0 0.0  
Since 1 June snowfall 0.0 0.0  
Since 1 July snowfall 0.0 0.0  
Snow Depth 0.00 in    
Sea Level Pressure  
Sea Level Pressure 29.93 in    
Wind  
Wind Speed 5 mph (SE)    
Max Wind Speed 14 mph    
Max Gust Speed 17 mph    
Visibility 10 miles    
Events      
T = Trace of Precipitation, MM = Missing Value Source: NWS Daily Summary

Daily Weather History Graph

Daily Weather History Graph

Search for Another Location

Airport:

Trip Planner

Search our weather history database for the weather conditions in past years. The results will help you decide how hot, cold, wet, or windy it might be!

Date:

Astronomy

Aug. 28, 2013 Rise Set
Actual Time 6:46 AM CDT 8:05 PM CDT
Civil Twilight 6:17 AM CDT 8:34 PM CDT
Nautical Twilight 5:42 AM CDT 9:09 PM CDT
Astronomical Twilight 5:05 AM CDT 9:46 PM CDT
Moon No Moon Rise 2:47 PM CDT (8/28)
Length of Visible Light 14h 17m
Length of Day
13h 19m
Waning Gibbous, 47% of the Moon is Illuminated
Aug 28
Waning Gibbous
Sep 5
New
Sep 12
First Quarter
Sep 19
Full
Sep 26
Last Quarter

Hourly Weather History & Observations

Time (CDT) Temp. Heat Index Dew Point Humidity Pressure Visibility Wind Dir Wind Speed Gust Speed Precip Events Conditions
12:52 AM 75.0 °F - 71.1 °F 87% 29.89 in 10.0 mi East 5.8 mph - N/A   Clear
1:52 AM 73.9 °F - 70.0 °F 87% 29.89 in 10.0 mi East 5.8 mph - N/A   Clear
2:52 AM 73.0 °F - 69.1 °F 87% 29.89 in 10.0 mi East 4.6 mph - N/A   Clear
3:52 AM 73.0 °F - 68.0 °F 84% 29.89 in 10.0 mi East 4.6 mph - N/A   Clear
4:52 AM 72.0 °F - 66.9 °F 84% 29.90 in 10.0 mi East 4.6 mph - N/A   Clear
5:52 AM 69.1 °F - 66.0 °F 90% 29.91 in 10.0 mi ESE 6.9 mph - N/A   Clear
6:52 AM 68.0 °F - 66.0 °F 93% 29.92 in 10.0 mi ESE 5.8 mph - N/A   Clear
7:52 AM 70.0 °F - 66.9 °F 90% 29.93 in 10.0 mi SE 5.8 mph - N/A   Clear
8:52 AM 73.9 °F - 68.0 °F 82% 29.94 in 10.0 mi SE 4.6 mph - N/A   Clear
9:52 AM 78.1 °F - 69.1 °F 74% 29.95 in 10.0 mi South 3.5 mph - N/A   Clear
10:52 AM 81.0 °F 84.1 °F 69.1 °F 67% 29.96 in 10.0 mi Calm Calm - N/A   Clear
11:52 AM 84.0 °F 88.4 °F 70.0 °F 63% 29.96 in 10.0 mi Calm Calm - N/A   Clear
12:52 PM 87.1 °F 92.8 °F 71.1 °F 59% 29.95 in 10.0 mi SSW 5.8 mph - N/A   Clear
1:52 PM 89.1 °F 96.0 °F 72.0 °F 57% 29.95 in 10.0 mi ESE 6.9 mph - N/A   Clear
2:52 PM 91.0 °F 100.4 °F 73.9 °F 57% 29.95 in 10.0 mi ESE 5.8 mph - N/A   Clear
3:52 PM 90.0 °F 100.2 °F 75.0 °F 61% 29.93 in 10.0 mi SSE 9.2 mph - N/A   Clear
4:52 PM 91.0 °F 102.9 °F 75.9 °F 61% 29.93 in 10.0 mi South 6.9 mph - N/A   Clear
5:52 PM 90.0 °F 97.9 °F 73.0 °F 57% 29.93 in 10.0 mi SSW 6.9 mph - N/A   Clear
6:52 PM 88.0 °F 96.5 °F 73.9 °F 63% 29.93 in 10.0 mi South 5.8 mph - N/A   Clear
7:52 PM 82.0 °F 87.9 °F 73.9 °F 76% 29.94 in 10.0 mi South 6.9 mph - N/A   Clear
8:52 PM 79.0 °F - 73.0 °F 82% 29.95 in 10.0 mi Calm Calm - N/A   Clear
9:52 PM 80.1 °F 83.6 °F 71.1 °F 74% 29.95 in 10.0 mi SSE 8.1 mph - N/A   Clear
10:52 PM 77.0 °F - 70.0 °F 79% 29.96 in 10.0 mi SSE 4.6 mph - N/A   Clear
11:52 PM 73.9 °F - 70.0 °F 87% 29.96 in 10.0 mi ESE 6.9 mph - N/A   Clear